This demonstration page uses our WeatherBlox Daily Observations layout. Learn more.

Left ArrowRight Arrow

41.55636, -103.73856

Hourly Observations for July 30, 2015

Temp ( °F °C ) Dew Point ( °F °C ) Humidity (%) Winds ( mph kmh ) Pressure ( in mb ) Visibility ( mi km ) Precip ( " mm )
12:12 am 00:12 Mostly Cloudy 68 20 50 10 53 53 SE 12 19 30.06 1018 10 16.0934 0 0
12:53 am 00:53 Mostly Clear 66 18.9 50 10 56 56 E 7 11 30.12 1020 10 16.0934 0 0.0254
1:53 am 01:53 Clear 61 16.1 51 10.6 70 70 ENE 7 11 30.12 1020 10 16.0934 0 0
2:53 am 02:53 Clear 61 16.1 49 9.4 65 65 ENE 6 9 30.12 1020 10 16.0934 0 0
3:53 am 03:53 Clear 58 14.4 50 10 75 75 E 8 13 30.12 1020 10 16.0934 0 0
4:53 am 04:53 Clear 57 13.9 51 10.6 81 81 ESE 6 9 30.11 1020 10 16.0934 0 0
5:53 am 05:53 Sunny 56 13.3 50 10 81 81 E 5 7 30.13 1020 10 16.0934 0 0
6:53 am 06:53 Sunny 60 15.6 52 11.1 75 75 NE 5 7 30.15 1021 10 16.0934 0 0
7:53 am 07:53 Sunny 67 19.4 54 12.2 63 63 NE 5 7 30.16 1022 10 16.0934 0 0
8:53 am 08:53 Sunny 70 21.1 55 12.8 59 59 Calm 30.18 1022 10 16.0934 0 0
9:53 am 09:53 Sunny 75 23.9 54 12.2 48 48 Calm 30.17 1022 10 16.0934 0 0
10:53 am 10:53 Sunny 78 25.6 55 12.8 45 45 Calm 30.17 1022 10 16.0934 0 0
11:53 am 11:53 Sunny 82 27.8 57 13.9 42 42 undefined N/A 30.15 1021 10 16.0934 0 0
12:53 pm 12:53 Sunny 84 28.9 57 13.9 40 40 VRB 6 9 30.14 1021 10 16.0934 0 0
1:53 pm 13:53 Sunny 88 31.1 46 7.8 23 23 E 9 15 30.13 1020 10 16.0934 0 0
2:53 pm 14:53 Sunny 89 31.7 45 7.2 22 22 VRB 7 11 30.12 1020 10 16.0934 0 0
3:53 pm 15:53 Sunny 90 32.2 44 6.7 20 20 E 7 11 30.1 1019 10 16.0934 0 0
4:53 pm 16:53 Sunny 90 32.2 42 5.6 19 19 E 7 11 30.09 1019 10 16.0934 0 0
5:53 pm 17:53 Sunny 89 31.7 44 6.7 21 21 ESE 7 11 30.08 1019 10 16.0934 0 0
6:53 pm 18:53 Sunny 85 29.4 54 12.2 35 35 NE 6 9 30.08 1019 10 16.0934 0 0
7:53 pm 19:53 Sunny 77 25 52 11.1 42 42 NE 9 15 30.08 1019 10 16.0934 0 0
8:53 pm 20:53 Clear 72 22.2 52 11.1 50 50 ENE 9 15 30.11 1020 10 16.0934 0 0
9:53 pm 21:53 Clear 71 21.7 49 9.4 46 46 ENE 9 15 30.13 1020 10 16.0934 0 0
10:53 pm 22:53 Clear 66 18.9 51 10.6 59 59 E 7 11 30.14 1021 10 16.0934 0 0
11:53 pm 23:53 Clear 64 17.8 58 14.4 81 81 E 7 11 30.14 1021 10 16.0934 0 0

Powered by AerisWeather